Temperature
21 21 21 20 20 20 20 19 19 19 19 18 18 18 18 18 18 18 18 18 17 17 17 17 17 17 17 17 17 17 17 17 17 17 17 17 17 17 17 17 17 17 16
21 21 21 21 20 20 20 19 19 19 19 18 18 18 18 18 18 18 18 17 17 17 17 17 17 17 17 17 17 17 17 17 17 17 17 17 17 17 17 17 17 17 16
21 21 21 21 20 20 20 19 19 19 18 18 18 17 17 17 17 17 17 17 17 17 17 17 17 17 17 17 17 17 17 17 17 17 17 17 17 17 17 17 17 17 17
21 21 21 20 20 20 20 19 19 18 18 18 18 18 18 18 18 18 18 17 17 17 17 17 17 17 17 17 17 17 17 17 17 17 17 17 17 17 17 17 17 17 17
21 21 21 21 20 20 20 19 19 18 18 18 18 18 18 18 18 18 17 17 17 17 17 17 17 17 17 17 17 17 17 17 17 17 17 17 17 17 17 17 17 17 17
21 20 20 20 20 20 19 19 18 18 18 18 18 18 18 18 18 18 17 17 17 17 17 17 17 17 17 17 17 17 17 17 17 17 17 17 17 17 17 17 17 17 17
20 20 20 20 20 19 19 19 18 18 18 18 17 18 17 17 17 17 17 17 17 17 17 17 17 17 17 17 17 17 17 17 16 17 17 17 17 17 17 17 17 17 17
20 20 20 20 19 19 19 18 18 18 18 18 17 17 17 17 17 17 17 17 17 17 17 17 17 17 17 17 17 17 17 17 16 16 16 16 17 17 17 17 17 17 17
20 20 20 19 19 19 19 19 18 18 18 18 17 17 17 17 17 17 17 17 17 17 17 17 17 17 17 17 17 17 17 16 16 16 16 16 16 16 16 17 17 17 17
20 20 20 20 20 19 19 19 18 18 18 18 17 17 17 17 17 17 17 17 17 17 17 17 17 17 17 17 17 17 16 16 16 16 16 16 16 16 16 16 16 16 16
20 20 20 20 20 19 19 19 18 18 18 18 17 17 17 17 17 17 17 17 17 17 17 17 17 17 17 17 17 16 16 16 16 16 16 16 16 16 16 16 16 16 16
20 20 20 20 20 19 19 19 18 18 18 18 17 17 17 17 17 17 17 17 16 17 17 17 17 17 17 16 16 16 16 16 16 16 16 16 16 16 16 16 16 16 16
20 20 20 20 20 19 19 19 19 18 18 17 17 17 17 17 17 17 17 16 16 16 17 17 16 17 17 16 16 16 16 16 16 16 16 16 16 16 16 16 16 16 15
19 20 20 20 20 19 19 19 19 18 18 17 17 17 17 17 17 17 17 17 16 16 16 16 16 16 16 16 16 16 16 16 16 16 16 16 15 15 15 15 15 15 15
19 19 20 20 19 19 19 19 19 18 18 17 17 17 17 17 17 16 16 16 16 16 16 16 16 16 16 16 16 16 16 16 16 15 15 15 15 15 15 15 15 15 15
18 18 19 19 19 19 19 19 18 18 18 17 17 17 17 17 16 16 16 16 16 16 16 16 16 16 16 16 16 16 16 15 15 15 15 15 15 15 15 15 15 14 14
17 18 18 19 19 19 19 18 18 18 18 17 17 17 17 16 16 16 16 16 16 16 16 16 16 16 16 16 15 15 15 15 15 15 15 15 14 14 14 14 14 14 14
17 18 18 18 18 18 18 18 18 18 17 17 17 17 16 16 16 16 16 16 15 15 15 15 15 15 15 15 15 15 15 15 15 15 15 14 14 14 14 14 14 13 13
17 17 18 18 18 18 18 18 17 17 17 17 17 16 16 16 16 16 16 15 15 15 15 15 15 15 14 14 14 14 14 14 14 14 14 14 14 14 13 13 13 13 13
17 17 17 18 18 18 17 17 17 17 17 17 16 16 16 16 16 16 15 15 15 15 14 14 14 14 14 14 14 14 14 14 14 14 13 13 13 13 13 13 13 12 12
16 17 17 17 17 17 17 17 17 16 16 16 16 16 16 15 15 15 15 15 15 14 14 14 14 14 14 14 14 14 14 13 13 13 13 12 12 12 12 12 12 12 12
15 16 16 16 16 16 16 16 16 16 16 16 15 15 15 15 15 14 14 14 14 14 14 13 13 13 13 13 13 13 13 13 12 12 12 12 12 11 11 11 11 11 11
14 15 15 15 15 15 15 15 15 15 15 15 15 14 14 14 14 14 14 14 14 13 13 13 13 13 12 12 12 12 12 12 12 11 11 11 11 11 11 11 10 10 10
14 14 14 14 14 14 14 14 14 15 15 14 14 14 14 13 13 13 13 13 13 13 13 12 12 12 12 12 12 11 11 11 11 11 10 10 10 10 10 10 10 9 9
13 13 13 13 13 13 13 13 14 14 14 14 13 13 13 13 13 13 12 12 12 12 12 12 12 11 11 11 11 11 11 10 10 10 10 10 9 9 9 9 9 8 8
12 12 13 13 13 13 13 13 13 13 13 13 13 13 12 12 12 12 11 11 11 11 11 11 11 10 10 10 10 10 10 10 9 9 9 9 9 8 8 8 8 8 8
Wind_Speed
7 7 8 10 10 11 11 12 11 10 9 8 8 7 7 6 5 6 10 11 11 11 10 6 5 6 5 5 5 3 3 2 2 3 2 2 1 1 2 3 4 6 7
7 8 9 10 11 11 11 11 11 11 11 9 8 5 5 5 5 5 7 12 12 12 10 8 6 6 5 5 5 4 3 2 2 3 2 1 2 2 1 2 4 5 5
9 9 9 9 9 11 12 11 11 11 11 10 6 6 5 4 5 6 6 8 12 12 10 9 8 7 7 6 6 6 6 4 2 1 3 3 3 2 1 1 3 3 4
7 8 9 9 9 10 9 8 10 11 12 12 11 11 9 8 7 7 6 6 9 10 11 10 9 8 6 7 7 6 4 5 3 2 1 2 3 2 1 2 1 3 4
6 8 9 9 7 7 8 8 9 9 9 10 11 11 8 7 5 6 8 8 7 8 10 10 9 8 7 7 7 6 5 4 4 4 3 2 1 1 2 2 2 2 3
5 6 6 6 6 6 7 7 8 8 9 10 10 10 10 8 8 8 9 7 5 6 8 9 8 8 7 7 7 7 7 5 4 4 3 3 3 3 3 3 2 2 2
6 7 7 7 7 7 7 8 8 8 9 10 10 10 10 10 11 10 9 8 6 5 8 8 7 7 7 7 7 7 7 6 6 5 4 3 3 3 3 3 2 2 2
5 7 7 7 7 8 8 9 9 8 8 9 9 9 9 8 7 8 8 8 7 7 7 8 8 8 8 7 7 6 6 6 6 6 5 4 4 4 4 4 3 1 1
5 6 7 7 8 8 9 9 9 8 8 8 8 8 8 7 7 7 7 6 6 6 7 8 8 8 8 8 7 6 6 6 6 6 6 4 4 4 4 3 4 4 3
5 6 7 7 7 7 6 7 7 7 7 7 7 7 7 7 7 6 7 7 7 7 8 8 8 8 8 8 7 5 5 6 5 5 6 5 4 4 4 4 4 4 4
6 6 6 6 6 6 6 6 5 5 5 6 6 6 6 7 6 6 7 7 7 8 8 8 8 8 8 7 6 6 7 7 6 6 6 6 5 4 4 4 4 4 4
4 5 5 5 5 6 5 5 5 5 5 5 5 6 6 6 7 6 6 7 7 7 8 7 7 8 7 7 8 8 7 7 7 7 6 6 5 5 4 4 4 4 5
3 3 4 4 4 4 5 5 4 4 4 4 5 4 5 6 6 6 6 7 7 7 7 7 7 7 7 8 8 8 7 7 7 7 7 6 6 5 4 5 5 4 4
3 3 4 4 5 4 4 4 4 4 4 4 4 4 5 5 6 5 5 6 6 7 6 6 6 6 6 6 7 7 6 6 6 6 6 6 6 6 6 5 5 4 4
2 2 3 4 4 4 4 4 4 4 4 4 4 4 4 4 5 5 5 5 6 6 6 6 5 5 5 5 6 6 6 6 5 4 5 5 6 6 5 4 5 5 4
2 1 1 3 4 4 4 4 4 4 5 4 4 3 4 5 5 5 5 5 5 5 5 5 5 4 3 5 7 6 5 5 5 4 3 3 4 5 6 6 5 5 5
2 1 1 2 3 4 4 5 5 5 5 4 3 4 4 5 5 6 6 6 5 5 4 4 4 3 2 3 5 6 4 4 4 3 3 2 2 3 2 2 3 3 4
4 2 1 1 2 3 4 4 5 6 6 4 3 4 5 6 6 6 6 5 5 5 4 4 4 3 2 3 3 4 3 3 3 3 3 3 1 1 2 2 1 1 1
3 2 2 1 2 4 5 6 5 5 6 5 4 4 5 6 6 6 6 5 5 5 4 4 4 3 2 2 2 3 2 2 2 2 2 2 2 2 2 2 1 0 1
4 3 3 4 4 4 5 6 5 5 5 4 5 5 5 6 6 6 6 5 5 5 5 4 4 4 3 4 2 3 3 3 3 3 3 4 3 3 3 2 1 0 1
5 5 5 5 4 4 6 6 5 4 3 4 5 5 5 6 6 6 5 5 6 6 6 5 5 5 5 5 5 5 3 3 3 3 3 3 5 5 5 4 2 1 1
7 6 6 6 5 5 6 7 5 4 5 6 7 6 6 5 6 6 6 5 6 7 6 6 5 5 5 6 6 8 7 5 5 4 3 3 6 7 7 5 5 4 3
6 6 7 8 8 7 7 7 5 6 8 9 8 8 8 7 6 6 6 5 5 5 5 5 5 4 5 6 10 10 10 9 6 5 7 8 9 8 7 8 7 5 4
6 7 8 9 8 8 8 7 6 7 9 9 8 8 9 8 8 7 6 6 5 5 5 5 5 5 5 5 5 5 6 8 7 6 8 10 11 8 7 6 6 5 4
6 7 8 9 9 9 9 8 7 8 10 10 9 9 9 9 10 10 9 8 6 5 6 6 5 5 5 5 7 6 6 5 5 5 5 6 6 6 6 5 5 5 4
7 9 10 9 9 9 10 9 8 9 10 10 9 8 8 8 9 10 12 17 14 16 16 12 9 8 8 10 12 12 12 11 9 7 6 6 5 5 5 5 5 5 5
Wind_Direction
201 188 186 179 180 180 179 185 190 191 181 179 185 187 193 188 192 194 190 188 192 193 187 188 178 178 180 178 168 147 136 119 124 100 56 10 351 247 236 230 225 229 227
188 184 177 178 184 184 184 188 189 186 186 187 186 182 179 185 199 199 190 189 191 193 192 183 181 180 172 165 168 151 137 129 141 131 114 24 340 312 245 222 222 229 229
192 189 186 185 185 186 187 190 189 185 185 177 171 168 163 161 179 192 193 194 192 191 188 186 182 179 176 179 179 169 153 152 154 154 146 153 220 280 305 249 230 227 225
192 190 185 186 194 193 185 184 187 185 183 174 179 180 188 192 191 188 191 186 189 188 187 184 182 180 178 177 181 174 162 151 163 161 134 147 155 162 275 311 269 240 232
196 189 190 192 192 178 174 180 183 185 180 178 184 186 193 193 175 173 180 185 188 188 187 184 182 181 182 180 177 168 169 167 166 167 155 133 103 128 158 245 291 279 244
192 182 177 167 167 163 162 167 175 181 178 183 188 190 191 183 173 179 184 186 186 186 186 184 182 182 183 182 182 176 176 177 168 168 165 160 161 181 172 200 237 256 270
183 176 172 172 172 169 168 169 176 186 187 189 195 194 193 188 188 185 186 184 187 190 190 184 180 180 185 182 174 175 179 178 177 179 184 182 185 166 164 169 201 241 282
184 182 178 176 177 176 173 176 188 192 190 194 198 191 187 189 193 188 184 187 191 190 180 178 180 181 182 182 174 176 183 181 185 190 184 186 196 184 176 171 165 187 277
177 178 175 174 177 180 180 182 188 191 192 194 191 186 185 187 186 182 182 182 179 178 174 177 181 183 181 177 172 180 185 181 190 193 193 196 199 194 197 186 179 175 212
178 179 181 182 180 180 175 174 181 188 187 186 188 188 187 188 182 179 183 183 182 178 173 181 184 182 180 178 177 179 183 184 192 193 194 202 203 196 196 197 196 193 197
189 182 180 178 171 164 164 170 174 175 177 182 186 181 182 180 178 186 190 187 184 180 181 184 182 182 181 178 179 186 189 193 200 202 199 208 201 197 198 194 191 194 189
191 177 169 161 161 164 166 167 168 174 180 177 177 180 177 172 177 186 188 184 184 184 184 181 180 183 181 178 183 193 195 198 205 208 202 211 203 202 199 193 199 202 200
172 157 153 160 165 166 165 166 168 173 170 164 168 170 174 177 182 184 183 182 182 180 179 175 181 184 183 186 193 196 197 201 207 205 204 209 198 208 207 200 205 208 203
162 159 168 170 165 162 165 167 168 166 163 161 166 174 179 178 176 175 176 177 175 173 173 174 180 181 182 189 196 195 194 196 203 201 204 209 204 209 208 207 209 204 201
121 164 178 171 160 156 161 162 161 151 151 153 164 180 175 162 157 159 162 160 158 163 161 163 172 175 179 193 193 191 189 189 196 197 204 211 207 207 205 205 203 196 203
74 102 172 168 168 170 171 161 153 142 135 145 157 154 153 150 148 148 145 144 139 136 145 159 167 169 186 187 181 177 178 180 185 192 201 206 210 218 216 211 197 187 197
59 95 155 185 181 181 170 165 154 139 135 142 145 137 134 132 136 137 127 126 127 127 133 138 138 138 138 147 159 166 169 175 178 183 188 198 206 204 201 205 208 214 215
24 15 18 158 163 159 149 141 135 138 138 141 142 138 134 133 126 122 121 117 111 113 114 115 121 118 100 122 152 176 173 166 167 173 177 182 191 169 169 166 169 226 247
18 359 359 78 125 140 143 132 134 139 139 143 143 141 135 131 128 130 127 121 118 114 109 103 106 104 72 68 141 159 150 136 118 104 96 110 116 72 112 138 155 55 354
19 27 35 59 93 112 126 128 132 134 142 144 139 135 136 135 136 132 121 114 114 115 109 95 88 92 75 51 83 142 127 118 107 92 80 71 78 74 85 114 129 145 324
25 41 52 54 66 102 114 120 124 132 130 118 114 114 120 124 122 117 115 116 114 107 100 90 74 67 58 50 60 91 109 120 113 98 75 57 61 67 68 78 84 77 4
38 49 59 53 50 73 99 103 102 102 102 103 100 97 94 104 110 109 105 106 110 106 101 91 74 57 49 47 56 69 80 96 102 94 78 67 64 69 66 68 64 58 55
51 56 67 62 54 55 78 89 80 92 97 93 93 92 86 81 87 98 103 99 99 103 100 96 84 64 56 53 55 63 69 78 86 82 76 73 72 71 65 58 58 60 58
59 64 72 69 59 55 63 74 81 91 94 92 90 92 90 83 74 71 76 83 85 96 97 96 90 77 63 53 51 59 68 70 75 74 68 67 65 63 56 50 46 45 44
61 68 76 76 68 61 61 65 75 88 89 87 85 84 85 86 80 70 59 67 58 81 97 94 93 89 75 52 61 74 70 69 76 77 63 53 47 44 39 36 34 32 29
68 68 67 68 66 65 61 59 72 87 93 90 85 84 87 89 90 90 77 59 67 67 70 77 87 76 82 82 75 72 69 67 73 76 64 54 47 41 32 24 16 14 10
Height
1479 1483 1485 1489 1491 1494 1496 1499 1503 1507 1510 1514 1518 1522 1525 1529 1533 1536 1539 1542 1545 1548 1551 1553 1555 1558 1560 1561 1563 1565 1566 1568 1569 1571 1572 1573 1574 1574 1576 1576 1577 1578 1579
1476 1479 1481 1484 1487 1489 1492 1495 1498 1502 1506 1509 1514 1519 1523 1526 1530 1533 1536 1539 1542 1545 1548 1551 1553 1556 1558 1560 1562 1563 1565 1566 1568 1569 1570 1572 1573 1573 1574 1575 1576 1577 1578
1473 1476 1478 1481 1483 1486 1488 1491 1494 1498 1502 1506 1511 1516 1520 1522 1526 1529 1532 1536 1539 1542 1545 1548 1551 1553 1556 1558 1560 1561 1563 1565 1566 1568 1570 1570 1570 1571 1572 1573 1574 1575 1576
1471 1473 1475 1478 1480 1482 1485 1488 1492 1495 1499 1503 1507 1511 1513 1516 1520 1524 1528 1532 1536 1539 1542 1545 1548 1551 1553 1555 1557 1559 1561 1563 1564 1566 1567 1569 1569 1570 1570 1572 1572 1573 1574
1468 1470 1473 1475 1477 1480 1483 1486 1489 1493 1496 1499 1503 1507 1510 1513 1517 1521 1524 1529 1532 1536 1539 1542 1545 1548 1550 1552 1555 1557 1559 1561 1562 1564 1565 1567 1568 1569 1569 1570 1570 1571 1572
1467 1469 1471 1474 1476 1478 1481 1484 1487 1490 1492 1495 1499 1503 1506 1510 1513 1516 1520 1524 1528 1532 1535 1538 1541 1544 1547 1549 1552 1554 1556 1558 1560 1562 1563 1565 1566 1567 1568 1568 1568 1569 1570
1465 1467 1469 1471 1474 1476 1479 1482 1484 1487 1490 1492 1496 1499 1503 1506 1509 1513 1517 1520 1524 1527 1531 1535 1538 1541 1544 1546 1549 1551 1553 1555 1557 1559 1561 1562 1564 1565 1566 1566 1567 1567 1568
1464 1466 1468 1470 1472 1475 1478 1480 1482 1485 1487 1490 1493 1496 1499 1502 1505 1509 1513 1517 1520 1524 1528 1531 1535 1538 1541 1543 1546 1548 1550 1553 1555 1556 1558 1559 1561 1562 1563 1564 1565 1565 1565
1463 1465 1467 1469 1471 1474 1476 1478 1480 1483 1485 1488 1490 1493 1496 1499 1502 1506 1509 1513 1517 1520 1524 1528 1531 1535 1537 1540 1543 1545 1547 1549 1551 1553 1555 1556 1558 1559 1560 1561 1562 1563 1563
1462 1464 1466 1468 1470 1473 1475 1477 1479 1481 1483 1485 1488 1490 1493 1496 1499 1502 1506 1509 1513 1517 1521 1525 1528 1531 1534 1537 1539 1541 1544 1546 1548 1550 1551 1553 1554 1556 1557 1558 1559 1559 1560
1461 1462 1465 1467 1469 1471 1473 1475 1477 1479 1481 1484 1486 1488 1490 1493 1496 1499 1503 1506 1510 1513 1517 1521 1524 1527 1530 1533 1536 1538 1540 1542 1544 1546 1547 1549 1551 1552 1553 1554 1555 1555 1556
1460 1462 1464 1466 1468 1470 1472 1474 1476 1478 1480 1482 1484 1486 1488 1491 1493 1497 1500 1503 1506 1510 1514 1518 1521 1524 1527 1529 1532 1534 1536 1538 1540 1542 1543 1545 1547 1548 1549 1549 1550 1551 1552
1460 1461 1463 1465 1467 1470 1471 1473 1475 1477 1479 1481 1483 1485 1486 1488 1491 1494 1497 1500 1504 1507 1511 1514 1517 1520 1523 1526 1528 1530 1532 1534 1536 1538 1539 1541 1542 1543 1544 1545 1546 1547 1547
1459 1460 1462 1464 1467 1469 1471 1473 1475 1476 1479 1480 1482 1483 1485 1487 1489 1492 1495 1498 1501 1504 1508 1511 1514 1517 1520 1522 1525 1527 1529 1531 1532 1534 1535 1536 1538 1539 1540 1541 1542 1542 1543
1458 1460 1462 1464 1466 1468 1470 1472 1474 1476 1478 1480 1481 1482 1484 1486 1488 1490 1493 1496 1498 1502 1505 1508 1511 1514 1516 1519 1521 1523 1525 1527 1528 1529 1531 1532 1533 1535 1536 1537 1537 1538 1538
1459 1460 1462 1463 1465 1468 1470 1472 1474 1476 1477 1479 1480 1481 1483 1485 1487 1489 1492 1494 1497 1500 1503 1506 1509 1511 1513 1516 1518 1520 1521 1523 1525 1526 1527 1528 1529 1531 1532 1533 1533 1534 1534
1459 1460 1462 1463 1465 1467 1470 1472 1473 1475 1477 1479 1480 1482 1483 1484 1486 1489 1491 1494 1496 1499 1502 1505 1507 1509 1511 1513 1515 1516 1518 1520 1521 1522 1523 1524 1525 1527 1528 1528 1529 1529 1529
1460 1461 1461 1463 1465 1467 1469 1471 1473 1475 1476 1478 1480 1482 1483 1485 1487 1489 1492 1494 1497 1499 1502 1504 1505 1507 1509 1511 1512 1514 1516 1517 1518 1519 1520 1521 1522 1523 1523 1524 1525 1525 1525
1461 1462 1462 1463 1464 1465 1467 1470 1472 1474 1475 1477 1479 1482 1484 1486 1488 1490 1492 1494 1496 1499 1501 1503 1505 1506 1507 1509 1511 1512 1513 1514 1515 1516 1517 1518 1519 1519 1520 1521 1521 1521 1521
1461 1462 1462 1463 1464 1465 1467 1469 1471 1473 1475 1477 1479 1481 1484 1486 1488 1490 1492 1494 1496 1498 1500 1502 1504 1505 1506 1508 1509 1510 1511 1512 1513 1514 1514 1515 1516 1516 1517 1517 1518 1518 1518
1461 1462 1462 1463 1464 1465 1466 1468 1471 1472 1475 1477 1479 1481 1484 1486 1488 1490 1492 1495 1496 1497 1500 1501 1503 1505 1506 1507 1508 1508 1509 1510 1510 1511 1512 1513 1513 1514 1514 1515 1515 1515 1515
1462 1462 1463 1464 1465 1466 1467 1468 1470 1473 1475 1477 1479 1481 1484 1486 1488 1490 1492 1494 1496 1497 1499 1502 1503 1504 1505 1505 1506 1507 1507 1508 1509 1510 1511 1511 1512 1512 1512 1512 1512 1512 1512
1463 1464 1464 1465 1466 1467 1468 1469 1472 1473 1475 1477 1480 1482 1485 1487 1489 1491 1493 1495 1496 1498 1499 1501 1503 1504 1504 1505 1506 1506 1507 1508 1508 1509 1509 1510 1510 1510 1511 1511 1511 1510 1510
1465 1466 1466 1466 1467 1469 1470 1471 1473 1475 1476 1478 1481 1483 1485 1487 1489 1491 1493 1495 1497 1498 1500 1501 1503 1504 1504 1505 1506 1506 1507 1508 1508 1508 1509 1509 1509 1509 1509 1509 1509 1508 1507
1468 1468 1468 1469 1470 1471 1472 1474 1475 1477 1479 1481 1483 1485 1487 1489 1490 1493 1495 1497 1498 1500 1502 1503 1504 1504 1505 1506 1506 1507 1507 1508 1508 1508 1509 1508 1508 1508 1508 1508 1507 1506 1506
1470 1470 1471 1472 1473 1474 1475 1477 1478 1480 1481 1483 1485 1487 1489 1491 1493 1494 1496 1499 1501 1502 1503 1505 1506 1506 1507 1507 1508 1508 1508 1508 1509 1509 1508 1508 1508 1508 1507 1506 1506 1505 1504